• In Denmark
  • List of Countries
  • For 7 days
  • Water Temperature
  • Satellite Maps
  • Weather Map
  • Weather Widgets
  • user-avatar
    Login

    Hourly Weather Szczawiczne

    Today, 23 September, Sunday

    Time Temperature Precipitation Wind Pressure Humidity
    00:00 +10°C° 0 mm 1 mps 720 mmHg 78%
    01:00 +10°C° 0 mm 1 mps 720 mmHg 78%
    02:00 +10°C° 0 mm 1 mps 720 mmHg 80%
    03:00 +9°C° 0 mm 1 mps 719 mmHg 82%
    04:00 +8°C° 0 mm 2 mps 719 mmHg 84%
    05:00 +8°C° 0 mm 2 mps 719 mmHg 82%
    06:00 +9°C° 0 mm 2 mps 719 mmHg 80%
    07:00 +9°C° 0 mm 2 mps 719 mmHg 78%
    08:00 +12°C° 0 mm 2 mps 719 mmHg 71%
    09:00 +13°C° 0 mm 3 mps 719 mmHg 63%
    10:00 +14°C° 0 mm 3 mps 719 mmHg 55%
    11:00 +16°C° 0 mm 3 mps 719 mmHg 54%
    12:00 +16°C° 0 mm 3 mps 719 mmHg 53%
    13:00 +17°C° 0 mm 3 mps 718 mmHg 52%
    14:00 +16°C° 0 mm 3 mps 718 mmHg 57%
    15:00 +16°C° 0 mm 3 mps 717 mmHg 62%
    16:00 +14°C° 0 mm 3 mps 716 mmHg 67%
    17:00 +13°C° 0.1 mm 3 mps 716 mmHg 70%
    18:00 +13°C° 0.1 mm 3 mps 715 mmHg 72%
    19:00 +12°C° 0.1 mm 4 mps 714 mmHg 75%
    20:00 +13°C° 0 mm 4 mps 713 mmHg 72%
    21:00 +13°C° 0 mm 5 mps 712 mmHg 70%
    22:00 +14°C° 0 mm 6 mps 711 mmHg 67%
    23:00 +13°C° 1.2 mm 5 mps 710 mmHg 73%

    Tomorrow, 24 September, Monday

    Time Temperature Precipitation Wind Pressure Humidity
    00:00 +13°C° 1.2 mm 5 mps 709 mmHg 79%
    01:00 +13°C° 1.2 mm 5 mps 709 mmHg 85%
    02:00 +13°C° 2.8 mm 5 mps 709 mmHg 88%
    03:00 +13°C° 2.8 mm 5 mps 709 mmHg 90%
    04:00 +13°C° 2.8 mm 5 mps 710 mmHg 93%
    05:00 +10°C° 0.8 mm 5 mps 711 mmHg 91%
    06:00 +8°C° 0.8 mm 6 mps 712 mmHg 90%
    07:00 +7°C° 0.8 mm 6 mps 714 mmHg 88%
    08:00 +7°C° 0.2 mm 6 mps 715 mmHg 85%
    09:00 +8°C° 0.2 mm 6 mps 716 mmHg 82%
    10:00 +8°C° 0.2 mm 6 mps 717 mmHg 79%
    11:00 +8°C° 0.1 mm 7 mps 718 mmHg 72%
    12:00 +9°C° 0.1 mm 7 mps 718 mmHg 65%
    13:00 +10°C° 0.1 mm 7 mps 719 mmHg 57%
    14:00 +9°C° 0.1 mm 7 mps 719 mmHg 58%
    15:00 +9°C° 0.1 mm 6 mps 719 mmHg 59%
    16:00 +8°C° 0.1 mm 6 mps 720 mmHg 59%
    17:00 +7°C° 0 mm 5 mps 720 mmHg 64%
    18:00 +6°C° 0 mm 5 mps 720 mmHg 68%
    19:00 +4°C° 0 mm 4 mps 721 mmHg 72%
    20:00 +4°C° 0 mm 4 mps 721 mmHg 72%
    21:00 +4°C° 0 mm 4 mps 721 mmHg 72%
    22:00 +3°C° 0 mm 4 mps 721 mmHg 72%
    23:00 +3°C° 0.4 mm 4 mps 722 mmHg 76%

    Day after tomorrow, 25 September, Tuesday

    Time Temperature Precipitation Wind Pressure Humidity
    00:00 +2°C° 0.4 mm 5 mps 722 mmHg 80%
    01:00 +2°C° 0.4 mm 5 mps 722 mmHg 84%
    02:00 +2°C° 0.2 mm 5 mps 723 mmHg 85%
    03:00 +2°C° 0.2 mm 5 mps 723 mmHg 86%
    04:00 +3°C° 0.2 mm 4 mps 724 mmHg 87%
    05:00 +3°C° 0 mm 4 mps 724 mmHg 86%
    06:00 +3°C° 0 mm 4 mps 725 mmHg 85%
    07:00 +3°C° 0 mm 4 mps 726 mmHg 83%
    08:00 +5°C° 0.1 mm 5 mps 726 mmHg 75%
    09:00 +6°C° 0.1 mm 5 mps 727 mmHg 68%
    10:00 +7°C° 0.1 mm 6 mps 727 mmHg 60%
    11:00 +7°C° 0.2 mm 6 mps 728 mmHg 59%
    12:00 +8°C° 0.2 mm 6 mps 728 mmHg 58%
    13:00 +8°C° 0.2 mm 6 mps 728 mmHg 56%
    14:00 +8°C° 0.1 mm 5 mps 728 mmHg 58%
    15:00 +7°C° 0.1 mm 5 mps 728 mmHg 59%
    16:00 +7°C° 0.1 mm 4 mps 728 mmHg 60%
    17:00 +7°C° 0 mm 3 mps 729 mmHg 66%
    18:00 +4°C° 0 mm 3 mps 729 mmHg 73%
    19:00 +4°C° 0 mm 2 mps 729 mmHg 79%
    20:00 +3°C° 0 mm 2 mps 730 mmHg 81%
    21:00 +3°C° 0 mm 2 mps 730 mmHg 82%
    22:00 +2°C° 0 mm 2 mps 731 mmHg 84%
    23:00 +3°C° 0 mm 1 mps 731 mmHg 84%

    26 September, Wednesday

    Time Temperature Precipitation Wind Pressure Humidity
    00:00 +3°C° 0 mm 1 mps 731 mmHg 84%
    01:00 +2°C° 0 mm 1 mps 731 mmHg 84%
    02:00 +2°C° 0 mm 1 mps 731 mmHg 84%
    03:00 +2°C° 0 mm 1 mps 731 mmHg 84%
    04:00 +2°C° 0 mm 1 mps 731 mmHg 84%
    05:00 +2°C° 0 mm 1 mps 731 mmHg 80%
    06:00 +3°C° 0 mm 1 mps 732 mmHg 75%
    07:00 +4°C° 0 mm 1 mps 732 mmHg 71%
    08:00 +7°C° 0 mm 1 mps 732 mmHg 61%
    09:00 +9°C° 0 mm 1 mps 732 mmHg 50%
    10:00 +12°C° 0 mm 1 mps 732 mmHg 40%
    11:00 +13°C° 0 mm 1 mps 732 mmHg 38%
    12:00 +13°C° 0 mm 1 mps 731 mmHg 36%
    13:00 +14°C° 0 mm 2 mps 731 mmHg 34%
    14:00 +14°C° 0 mm 1 mps 730 mmHg 38%
    15:00 +13°C° 0 mm 1 mps 730 mmHg 43%
    16:00 +13°C° 0 mm 1 mps 729 mmHg 48%
    17:00 +11°C° 0 mm 1 mps 729 mmHg 52%
    18:00 +10°C° 0 mm 1 mps 729 mmHg 56%
    19:00 +7°C° 0 mm 2 mps 729 mmHg 61%
    20:00 +7°C° 0 mm 2 mps 729 mmHg 63%
    21:00 +7°C° 0 mm 2 mps 728 mmHg 64%
    22:00 +7°C° 0 mm 2 mps 728 mmHg 66%
    23:00 +7°C° 0 mm 2 mps 728 mmHg 66%

    27 September, Thursday

    Time Temperature Precipitation Wind Pressure Humidity
    00:00 +7°C° 0 mm 2 mps 728 mmHg 66%
    01:00 +7°C° 0 mm 2 mps 728 mmHg 66%
    02:00 +7°C° 0 mm 2 mps 727 mmHg 64%
    03:00 +7°C° 0 mm 2 mps 727 mmHg 62%
    04:00 +7°C° 0 mm 2 mps 727 mmHg 61%
    05:00 +8°C° 0 mm 2 mps 727 mmHg 60%
    06:00 +8°C° 0 mm 2 mps 727 mmHg 59%
    07:00 +8°C° 0 mm 2 mps 726 mmHg 58%
    08:00 +10°C° 0 mm 2 mps 727 mmHg 52%
    09:00 +14°C° 0 mm 2 mps 727 mmHg 46%
    10:00 +16°C° 0 mm 2 mps 727 mmHg 39%
    11:00 +17°C° 0 mm 2 mps 726 mmHg 38%
    12:00 +18°C° 0 mm 2 mps 726 mmHg 36%
    13:00 +19°C° 0 mm 3 mps 726 mmHg 35%
    14:00 +18°C° 0 mm 2 mps 726 mmHg 39%
    15:00 +18°C° 0 mm 2 mps 725 mmHg 44%
    16:00 +17°C° 0 mm 2 mps 725 mmHg 49%
    17:00 +15°C° 0 mm 1 mps 725 mmHg 54%
    18:00 +13°C° 0 mm 1 mps 725 mmHg 59%
    19:00 +11°C° 0 mm 1 mps 725 mmHg 64%
    20:00 +11°C° 0 mm 1 mps 724 mmHg 64%
    21:00 +10°C° 0 mm 1 mps 724 mmHg 65%
    22:00 +10°C° 0 mm 1 mps 724 mmHg 66%
    23:00 +10°C° 0 mm 1 mps 724 mmHg 67%

    28 September, Friday

    Time Temperature Precipitation Wind Pressure Humidity
    00:00 +9°C° 0 mm 1 mps 724 mmHg 68%
    01:00 +9°C° 0 mm 1 mps 723 mmHg 68%
    02:00 +9°C° 0 mm 1 mps 723 mmHg 69%
    03:00 +9°C° 0 mm 1 mps 723 mmHg 70%
    04:00 +9°C° 0 mm 1 mps 723 mmHg 71%
    05:00 +8°C° 0 mm 2 mps 722 mmHg 69%
    06:00 +9°C° 0 mm 2 mps 722 mmHg 68%
    07:00 +10°C° 0 mm 2 mps 722 mmHg 66%
    08:00 +13°C° 0 mm 2 mps 722 mmHg 59%
    09:00 +15°C° 0 mm 2 mps 722 mmHg 53%
    10:00 +17°C° 0 mm 2 mps 722 mmHg 46%
    11:00 +18°C° 0 mm 2 mps 722 mmHg 44%
    12:00 +19°C° 0 mm 2 mps 722 mmHg 41%
    13:00 +20°C° 0 mm 2 mps 721 mmHg 39%
    14:00 +20°C° 0 mm 2 mps 721 mmHg 43%
    15:00 +19°C° 0 mm 2 mps 720 mmHg 46%
    16:00 +18°C° 0 mm 2 mps 719 mmHg 50%
    17:00 +16°C° 0 mm 2 mps 719 mmHg 55%
    18:00 +14°C° 0 mm 2 mps 719 mmHg 60%
    19:00 +12°C° 0 mm 2 mps 719 mmHg 65%
    20:00 +10°C° 0 mm 2 mps 719 mmHg 66%
    21:00 +11°C° 0 mm 1 mps 718 mmHg 68%
    22:00 +10°C° 0 mm 1 mps 718 mmHg 70%
    23:00 +10°C° 0 mm 1 mps 718 mmHg 70%
    Show more